User: anonymous   Login
Location: Unspecified
(0.0000°N, 0.0000°E)
Time: 10:45:51
(UTC+00:00)
Language:

GONETS M 10 (M20) - Orbit

View from above orbital plane
View from above orbital plane
View from above satellite
View from above satellite

Ground track
Ground track

The orbit data is extracted from the following two-line orbital elements,

1 40063U 14036C   24110.95086947  .00000048  00000-0  27109-3 0  9997
2 40063  82.5082  77.2294 0023051  62.9304 297.4124 12.42911232444329
Epoch (UTC): 19 April 2024 22:49:15
Eccentricity: 0.0023051
inclination: 82.5082°
perigee height: 1476 km
apogee height: 1512 km
right ascension of ascending node: 77.2294°
argument of perigee: 62.9304°
revolutions per day: 12.42911232
mean anomaly at epoch: 297.4124°
orbit number at epoch: 44432

The dashed part of the orbit path shows where the satellite is in the earth's shadow,  

DLR